Weather History for Muskegon, MI

Change the Weather History Date:

Thursday, June 27, 2013

  Actual Average Record
Temperature  
Mean Temperature 75 °F 69 °F  
Max Temperature 84 °F 79 °F 92 °F (1941)
Min Temperature 65 °F 60 °F 44 °F (1981)
Degree Days  
Heating Degree Days 0 1  
Month to date heating degree days 52 63  
Since 1 June heating degree days 52 63  
Since 1 July heating degree days 6324 6557  
Cooling Degree Days 10 5  
Month to date cooling degree days 82 89  
Year to date cooling degree days 142 118  
Since 1 June cooling degree days 82 89  
Growing Degree Days 26 (Base 50)    
Moisture  
Dew Point 65 °F    
Average Humidity 76    
Maximum Humidity 93    
Minimum Humidity 58    
Precipitation  
Precipitation 0.04 in 0.07 in 5.08 in (1921)
Month to date precipitation 4.30 2.31  
Year to date precipitation 26.99 14.58  
Snow  
Snow 0.00 in 0.00 in - ()
Month to date snowfall 0.0 0.0  
Since 1 June snowfall 0.0 0.0  
Since 1 July snowfall 98.6 93.7  
Snow Depth 0.00 in    
Sea Level Pressure  
Sea Level Pressure 29.73 in    
Wind  
Wind Speed 4 mph (West)    
Max Wind Speed 14 mph    
Max Gust Speed 18 mph    
Visibility 9 miles    
Events Rain , Thunderstorm    
T = Trace of Precipitation, MM = Missing Value Source: NWS Daily Summary

Daily Weather History Graph

Daily Weather History Graph

Search for Another Location

Airport:

Trip Planner

Search our weather history database for the weather conditions in past years. The results will help you decide how hot, cold, wet, or windy it might be!

Date:

Astronomy

Jun. 27, 2013 Rise Set
Actual Time 6:07 AM EDT 9:28 PM EDT
Civil Twilight 5:31 AM EDT 10:04 PM EDT
Nautical Twilight 4:45 AM EDT 10:50 PM EDT
Astronomical Twilight 3:48 AM EDT 11:47 PM EDT
Moon No Moon Rise 11:16 AM EDT (6/27)
Length of Visible Light 16h 32m
Length of Day
15h 21m
Waning Gibbous, 76% of the Moon is Illuminated
Jun 27
Waning Gibbous
Jun 30
Last Quarter
Jul 8
New
Jul 15
First Quarter
Jul 22
Full

Hourly Weather History & Observations

Time (EDT) Temp. Heat Index Dew Point Humidity Pressure Visibility Wind Dir Wind Speed Gust Speed Precip Events Conditions
12:55 AM 72.0 °F - 66.9 °F 84% 29.76 in 10.0 mi NNW 3.5 mph - N/A   Clear
1:55 AM 70.0 °F - 66.0 °F 87% 29.75 in 10.0 mi Calm Calm - N/A   Clear
2:55 AM 70.0 °F - 66.9 °F 90% 29.75 in 10.0 mi NW 4.6 mph - N/A   Clear
3:55 AM 70.0 °F - 66.9 °F 90% 29.74 in 10.0 mi Calm Calm - N/A   Partly Cloudy
4:55 AM 69.1 °F - 66.0 °F 90% 29.75 in 10.0 mi North 4.6 mph - N/A   Clear
5:55 AM 68.0 °F - 64.9 °F 90% 29.76 in 10.0 mi Calm Calm - N/A   Mostly Cloudy
6:55 AM 68.0 °F - 64.9 °F 90% 29.76 in 8.0 mi Calm Calm - N/A   Mostly Cloudy
7:55 AM 70.0 °F - 66.9 °F 90% 29.75 in 9.0 mi Calm Calm - N/A   Mostly Cloudy
8:55 AM 75.0 °F - 66.9 °F 76% 29.75 in 10.0 mi Calm Calm - N/A   Scattered Clouds
9:55 AM 79.0 °F - 66.9 °F 66% 29.75 in 10.0 mi NW 4.6 mph - N/A   Scattered Clouds
10:55 AM 81.0 °F 83.0 °F 66.0 °F 60% 29.75 in 10.0 mi Calm Calm - N/A   Mostly Cloudy
11:55 AM 81.0 °F 82.5 °F 64.0 °F 56% 29.75 in 10.0 mi West 8.1 mph - N/A   Mostly Cloudy
12:55 PM 78.1 °F - 63.0 °F 60% 29.75 in 10.0 mi WSW 8.1 mph - N/A   Mostly Cloudy
1:55 PM 80.1 °F 81.7 °F 64.0 °F 58% 29.74 in 10.0 mi SW 10.4 mph - N/A   Scattered Clouds
2:55 PM 75.9 °F - 64.0 °F 67% 29.75 in 10.0 mi West 11.5 mph - N/A   Scattered Clouds
3:43 PM 77.0 °F - 64.4 °F 65% 29.75 in 10.0 mi WSW 10.4 mph - N/A   Mostly Cloudy
3:55 PM 75.0 °F - 64.0 °F 69% 29.73 in 10.0 mi WSW 8.1 mph - N/A   Mostly Cloudy
4:39 PM 75.2 °F - 66.2 °F 73% 29.73 in 10.0 mi WSW 9.2 mph - N/A   Mostly Cloudy
4:55 PM 73.9 °F - 64.9 °F 73% 29.71 in 10.0 mi WSW 10.4 mph - N/A   Mostly Cloudy
5:55 PM 72.0 °F - 64.9 °F 78% 29.71 in 10.0 mi WSW 8.1 mph - N/A   Mostly Cloudy
6:55 PM 75.9 °F - 66.9 °F 74% 29.70 in 10.0 mi WSW 5.8 mph - N/A   Mostly Cloudy
7:55 PM 71.1 °F - 66.0 °F 84% 29.69 in 9.0 mi WSW 5.8 mph - N/A   Mostly Cloudy
8:43 PM 69.8 °F - 64.4 °F 83% 29.72 in 8.0 mi WSW 6.9 mph - N/A   Mostly Cloudy
8:50 PM 69.8 °F - 64.4 °F 83% 29.71 in 8.0 mi WSW 4.6 mph - N/A   Overcast
8:55 PM 70.0 °F - 64.9 °F 84% 29.70 in 8.0 mi SW 6.9 mph - N/A   Overcast
9:40 PM 69.8 °F - 64.4 °F 83% 29.72 in 10.0 mi NNW 5.8 mph - N/A   Overcast
9:55 PM 71.1 °F - 64.9 °F 81% 29.73 in 10.0 mi NNW 8.1 mph - N/A   Overcast
9:59 PM 71.6 °F - 66.2 °F 83% 29.74 in 10.0 mi NNW 10.4 mph - N/A Thunderstorm Thunderstorm
10:14 PM 69.8 °F - 66.2 °F 88% 29.74 in 8.0 mi NNW 10.4 mph - 0.00 in Rain , Thunderstorm Light Thunderstorms and Rain
10:30 PM 69.8 °F - 66.2 °F 88% 29.72 in 5.0 mi NNE 4.6 mph - 0.02 in Rain Light Rain
10:55 PM 70.0 °F - 64.9 °F 84% 29.68 in 9.0 mi Calm Calm - 0.03 in   Mostly Cloudy
11:55 PM 66.9 °F - 64.9 °F 93% 29.66 in 4.0 mi Calm Calm - N/A   Clear